Location: Orangeville
(43.9200°N, 80.0943°W)
Time: 12:54:43
(UTC-05:00)

ISS - Pass Details

Date: 01 December 2021
Orbit: 413 x 422 km, 51.6° (Epoch: 22 January)

Event Time Altitude Azimuth Distance (km) Brightness Sun altitude
Rises 18:46:59 0° 302° (WNW) 2,383 0.8 -21.6°
Reaches altitude 10° 18:49:12 10° 311° (NW) 1,514 -0.5 -22.0°
Enters shadow 18:51:03 26° 334° (NNW) 884 -2.0 -22.3°
